| time (UTC) | temp C | wind direction | speed KPH | gust KPH | rain 1hr cm | rain 24hr cm | rain mn cm | humidity % | barometer mb |
| 20260510071505 | 22 | 360 | 4.8 | 12.9 | 0.00 | 0.05 | 0.00 | 59 | 1010.7 |
| 20260510070003 | 22 | 360 | 4.8 | 8.0 | 0.00 | 0.05 | 0.00 | 58 | 1010.8 |
| 20260510064510 | 22 | 360 | 3.2 | 9.7 | 0.00 | 0.05 | 0.00 | 58 | 1010.8 |
| 20260510063002 | 22 | 360 | 6.4 | 14.5 | 0.00 | 0.05 | 0.00 | 58 | 1010.7 |
| 20260510061559 | 23 | 360 | 1.6 | 6.4 | 0.00 | 0.05 | 0.00 | 57 | 1010.6 |
| 20260510060059 | 23 | 360 | 3.2 | 9.7 | 0.00 | 0.05 | 0.00 | 58 | 1010.5 |
| 20260510053055 | 23 | 360 | 3.2 | 9.7 | 0.00 | 0.05 | 0.00 | 59 | 1010.6 |
| 20260510051557 | 23 | 360 | 4.8 | 12.9 | 0.00 | 0.05 | 0.00 | 59 | 1010.7 |
| 20260510050052 | 23 | 360 | 3.2 | 8.0 | 0.00 | 0.05 | 0.00 | 59 | 1010.5 |
| 20260510043050 | 24 | 360 | 3.2 | 8.0 | 0.00 | 0.05 | 0.00 | 58 | 1010.4 |
| 20260510041547 | 25 | 360 | 1.6 | 4.8 | 0.00 | 0.05 | 0.00 | 58 | 1010.4 |
| 20260510040045 | 25 | 360 | 1.6 | 6.4 | 0.00 | 0.05 | 0.00 | 57 | 1010.4 |
| 20260510033046 | 25 | 360 | 4.8 | 9.7 | 0.00 | 0.05 | 0.00 | 57 | 1010.3 |
| 20260510031540 | 26 | 360 | 3.2 | 12.9 | 0.00 | 0.05 | 0.00 | 57 | 1010.0 |
| 20260510030036 | 26 | 360 | 3.2 | 14.5 | 0.00 | 0.05 | 0.00 | 56 | 1009.8 |
| 20260510023034 | 26 | 360 | 4.8 | 19.3 | 0.00 | 0.05 | 0.00 | 54 | 1009.3 |
| 20260510021532 | 26 | 360 | 4.8 | 14.5 | 0.00 | 0.05 | 0.00 | 53 | 1009.2 |
| 20260510020032 | 27 | 360 | 6.4 | 14.5 | 0.00 | 0.05 | 0.00 | 52 | 1008.9 |
| 20260510013026 | 27 | 360 | 6.4 | 16.1 | 0.00 | 0.05 | 0.00 | 50 | 1008.7 |
| 20260510011525 | 27 | 360 | 8.0 | 20.9 | 0.00 | 0.05 | 0.00 | 48 | 1008.5 |
| 20260510010021 | 28 | 360 | 4.8 | 12.9 | 0.00 | 0.05 | 0.00 | 45 | 1008.5 |
| 20260510003017 | 29 | 360 | 6.4 | 17.7 | 0.00 | 0.05 | 0.00 | 40 | 1008.3 |
| 20260510001514 | 30 | 360 | 11.3 | 20.9 | 0.00 | 0.05 | 0.00 | 38 | 1008.0 |
| 20260510000012 | 30 | 360 | 4.8 | 17.7 | 0.00 | 0.05 | 0.00 | 35 | 1008.1 |
| 20260509233007 | 31 | 360 | 9.7 | 22.5 | 0.00 | 0.05 | 0.00 | 31 | 1007.7 |
| 20260509231509 | 31 | 360 | 9.7 | 22.5 | 0.00 | 0.05 | 0.00 | 32 | 1007.7 |
| 20260509230004 | 31 | 360 | 9.7 | 17.7 | 0.00 | 0.05 | 0.00 | 34 | 1007.8 |
| 20260509223004 | 31 | 360 | 9.7 | 20.9 | 0.00 | 0.05 | 0.00 | 35 | 1007.9 |
| 20260509221502 | 31 | 360 | 9.7 | 20.9 | 0.00 | 0.05 | 0.00 | 34 | 1007.9 |
| 20260509220001 | 31 | 360 | 4.8 | 20.9 | 0.00 | 0.05 | 0.00 | 36 | 1007.9 |
| 20260509213059 | 31 | 360 | 6.4 | 17.7 | 0.00 | 0.05 | 0.00 | 37 | 1008.2 |
| 20260509211557 | 33 | 360 | 0.0 | 3.2 | 0.00 | 0.05 | 0.00 | 30 | 1008.2 |
| 20260509210100 | 34 | 360 | 1.6 | 8.0 | 0.00 | 0.05 | 0.00 | 29 | 1008.3 |
| 20260509203057 | 33 | 360 | 3.2 | 6.4 | 0.00 | 0.05 | 0.00 | 29 | 1008.8 |
| 20260509201550 | 33 | 360 | 3.2 | 8.0 | 0.00 | 0.05 | 0.00 | 31 | 1009.1 |
| 20260509200046 | 33 | 360 | 0.0 | 6.4 | 0.00 | 0.05 | 0.00 | 35 | 1009.3 |
| 20260509193039 | 31 | 360 | 4.8 | 12.9 | 0.00 | 0.05 | 0.05 | 38 | 1009.4 |
| 20260509191539 | 31 | 360 | 6.4 | 9.7 | 0.00 | 0.05 | 0.05 | 40 | 1009.5 |
| 20260509190039 | 31 | 360 | 6.4 | 12.9 | 0.00 | 0.05 | 0.05 | 41 | 1009.7 |
| 20260509183035 | 31 | 360 | 3.2 | 12.9 | 0.00 | 0.05 | 0.05 | 43 | 1010.2 |
| 20260509181533 | 31 | 360 | 3.2 | 6.4 | 0.00 | 0.05 | 0.05 | 44 | 1010.5 |
| 20260509180053 | 30 | 360 | 4.8 | 9.7 | 0.00 | 0.05 | 0.05 | 44 | 1010.7 |
| 20260509173041 | 30 | 360 | 1.6 | 6.4 | 0.00 | 0.05 | 0.05 | 41 | 1011.5 |
| 20260509171529 | 29 | 360 | 4.8 | 8.0 | 0.00 | 0.05 | 0.05 | 41 | 1011.3 |
| 20260509170044 | 27 | 360 | 3.2 | 9.7 | 0.00 | 0.05 | 0.05 | 44 | 1011.4 |
| 20260509163024 | 26 | 360 | 3.2 | 9.7 | 0.00 | 0.05 | 0.05 | 50 | 1011.5 |
| 20260509161515 | 25 | 360 | 4.8 | 20.9 | 0.00 | 0.05 | 0.05 | 52 | 1011.4 |
| 20260509160015 | 25 | 360 | 9.7 | 22.5 | 0.00 | 0.05 | 0.05 | 56 | 1011.4 |
| 20260509153018 | 23 | 360 | 14.5 | 24.1 | 0.00 | 0.05 | 0.05 | 59 | 1011.5 |
| 20260509151514 | 23 | 360 | 6.4 | 19.3 | 0.00 | 0.05 | 0.05 | 59 | 1011.5 |
| 20260509150013 | 23 | 360 | 4.8 | 16.1 | 0.00 | 0.05 | 0.05 | 61 | 1011.3 |
| 20260509143016 | 23 | 360 | 11.3 | 22.5 | 0.00 | 0.05 | 0.05 | 63 | 1011.0 |
| 20260509141526 | 23 | 360 | 6.4 | 17.7 | 0.00 | 0.05 | 0.05 | 64 | 1010.5 |
| 20260509140011 | 22 | 360 | 0.0 | 9.7 | 0.00 | 0.05 | 0.05 | 65 | 1010.3 |
| 20260509133009 | 22 | 360 | 8.0 | 19.3 | 0.00 | 0.05 | 0.05 | 65 | 1010.5 |
| 20260509131508 | 21 | 360 | 6.4 | 9.7 | 0.00 | 0.05 | 0.05 | 65 | 1011.0 |
| 20260509130008 | 21 | 360 | 1.6 | 6.4 | 0.00 | 0.05 | 0.05 | 65 | 1011.4 |
| 20260509123013 | 21 | 360 | 3.2 | 6.4 | 0.00 | 0.05 | 0.05 | 65 | 1010.8 |
| 20260509121509 | 21 | 360 | 4.8 | 9.7 | 0.00 | 0.05 | 0.05 | 65 | 1010.8 |
| 20260509120018 | 21 | 360 | 0.0 | 3.2 | 0.00 | 0.05 | 0.05 | 65 | 1011.0 |
| 20260509113004 | 21 | 360 | 0.0 | 3.2 | 0.03 | 0.05 | 0.05 | 65 | 1011.3 |
| 20260509111504 | 21 | 360 | 1.6 | 6.4 | 0.03 | 0.05 | 0.05 | 65 | 1012.0 |
| 20260509110004 | 21 | 360 | 0.0 | 4.8 | 0.03 | 0.05 | 0.05 | 65 | 1011.9 |
| 20260509103003 | 21 | 360 | 0.0 | 4.8 | 0.00 | 0.03 | 0.03 | 65 | 1012.0 |
| 20260509101505 | 21 | 360 | 1.6 | 4.8 | 0.00 | 0.03 | 0.03 | 64 | 1011.8 |
| 20260509100059 | 21 | 360 | 0.0 | 0.0 | 0.03 | 0.03 | 0.03 | 64 | 1011.3 |
| 20260509093102 | 21 | 360 | 0.0 | 4.8 | 0.03 | 0.03 | 0.03 | 63 | 1010.5 |
| 20260509091557 | 21 | 360 | 1.6 | 6.4 | 0.03 | 0.03 | 0.03 | 63 | 1010.5 |
| 20260509090059 | 21 | 360 | 0.0 | 4.8 | 0.00 | 0.00 | 0.00 | 62 | 1010.5 |
| 20260509083055 | 22 | 360 | 3.2 | 6.4 | 0.00 | 0.00 | 0.00 | 59 | 1010.8 |
| 20260509081557 | 22 | 360 | 1.6 | 6.4 | 0.00 | 0.00 | 0.00 | 57 | 1011.1 |
| 20260509080055 | 22 | 360 | 0.0 | 4.8 | 0.00 | 0.00 | 0.00 | 55 | 1011.0 |
| 20260509073058 | 22 | 360 | 1.6 | 6.4 | 0.00 | 0.00 | 0.00 | 54 | 1010.9 |